Location: Bottenau
(48.5138°N, 8.0462°E)
Time: 21:10:47
(UTC+00:00)

Cosmos 1825 - Pass Details

Date: 18 April 2021
Orbit: 502 x 505 km, 82.5° (Epoch: 17 May)

Event Time Altitude Azimuth Distance (km) Brightness Sun altitude
Rises 20:02:32 0° 344° (NNW) 2,619 6.7 -15.3°
Reaches altitude 10° 20:04:44 10° 337° (NNW) 1,729 5.8 -15.6°
Maximum altitude 20:08:18 41° 267° (W) 752 3.4 -16.0°
Drops below altitude 10° 20:11:51 10° 196° (SSW) 1,716 4.6 -16.5°
Enters shadow 20:12:00 - 196° (SSW) 1,772 4.7 -16.5°
